• Join FlightAware (Why Join?)
  • Login
  • US Flag 
06:06AM EDT


 

Airport Tracker/Info


-or-


 

Live Flight TrackerFlight Track Log ✈ SCX8700 ✈ 24-Feb-2014 ✈ KLCK - KMSP

Flight Track Log - Related Links

Times and Time Zones

All times are in EST time to prevent confusion due to time zone crossing. See the SCX8700 flight status page for this flight to view local times or setup timezone preferences in your user account.

Time Position Orientation Groundspeed Altitude Reporting Facility
EST Latitude Longitude Course Direction KTS MPH feet Rate Location/Type
02:08PM 39.8011 -82.9461 299° West 139 160 40,000  Level Indianapolis Center
02:09PM 39.7794 -82.9892 237° Southwest 226 260 4,700 -15,000 Descending Indianapolis Center
02:10PM 39.8214 -83.0736 303° West 237 273 9,300 3,240 Climbing Indianapolis Center
02:11PM 39.9073 -83.1461 288° West  Level FlightAware Approximate
02:11PM 39.8589 -83.1508 302° West 253 291 11,400  Level Indianapolis Center
02:12PM 39.9505 -83.2677 303° West  Level FlightAware Approximate
02:12PM 39.9036 -83.2278 307° West 267 307 12,100  Level Indianapolis Center
02:13PM 40.0071 -83.3837 299° West  Level FlightAware Approximate
02:13PM 39.9458 -83.3039 306° West 267 307 13,200  Level Indianapolis Center
02:14PM 39.9889 -83.3789 307° West 266 306 14,400 2,820 Climbing Indianapolis Center
02:15PM 40.0411 -83.4728 306° West 266 306 19,100 3,960 Climbing Indianapolis Center
02:16PM 40.0867 -83.5544 306° West 277 319 22,600 2,220 Climbing Indianapolis Center
02:17PM 40.1356 -83.6406 307° West 289 333 23,700 1,980 Climbing Indianapolis Center
02:18PM 40.1844 -83.7275 306° West 295 339 26,700 2,520 Climbing Indianapolis Center
02:19PM 40.2336 -83.8181 305° West 300 345 29,000 1,080 Climbing Indianapolis Center
02:20PM 40.2856 -83.9133 306° West 315 362 29,000 240 Level Indianapolis Center
02:21PM 40.3500 -84.0281 306° West 322 371 29,600 480 Climbing Indianapolis Center
02:22PM 40.4036 -84.1256 306° West 327 376 30,100 1,440 Climbing Indianapolis Center
02:23PM 40.4575 -84.2236 306° West 330 380 32,600 1,980 Climbing Indianapolis Center
02:24PM 40.5111 -84.3219 306° West 330 380 34,300 1,440 Climbing Indianapolis Center
02:25PM 40.5678 -84.4261 306° West 345 397 35,600 1,320 Climbing Indianapolis Center
02:26PM 40.6267 -84.5331 306° West 356 410 37,100 1,380 Climbing Indianapolis Center
02:27PM 40.6986 -84.6658 306° West 366 421 38,500 1,260 Climbing Indianapolis Center
02:28PM 40.7594 -84.7792 305° West 374 430 39,700 720 Climbing Indianapolis Center
02:29PM 40.8217 -84.8942 306° West 382 440 40,000 120 Climbing Indianapolis Center
02:30PM 40.8864 -85.0136 306° West 382 440 40,000  Level Indianapolis Center
02:36PM 41.2072 -85.6770 306° West 374 430 40,000  Level FlightAware ADS-B (KMDW)
02:37PM 41.2445 -85.7578 302° West 377 434 40,000  Level FlightAware ADS-B (KMDW)
02:37PM 41.2716 -85.8165 302° West 377 434 40,000  Level FlightAware ADS-B (KMDW)
02:38PM 41.3252 -85.9332 301° West 378 435 40,000  Level FlightAware ADS-B (KMDW)
02:39PM 41.3508 -85.9892 301° West 378 435 40,000  Level FlightAware ADS-B (KMDW)
02:39PM 41.3901 -86.0746 301° West 378 435 40,000  Level FlightAware ADS-B (KMDW)
02:40PM 41.4183 -86.1364 301° West 377 434 40,000  Level FlightAware ADS-B (KMDW)
02:40PM 41.4461 -86.1973 301° West 376 433 40,000  Level FlightAware ADS-B (KMDW)
02:41PM 41.4777 -86.2669 301° West 377 434 40,000  Level FlightAware ADS-B (KMDW)
02:42PM 41.5197 -86.3599 301° West 378 435 40,000  Level FlightAware ADS-B (KMDW)
02:42PM 41.5542 -86.4362 301° West 379 436 40,000  Level FlightAware ADS-B (KMDW)
02:43PM 41.5847 -86.5033 301° West 381 438 40,000  Level FlightAware ADS-B (KMDW)
02:44PM 41.6260 -86.5688 310° West 390 449 40,000  Level FlightAware ADS-B (KMDW)
02:45PM 41.7045 -86.6715 316° Northwest 388 447 40,000  Level FlightAware ADS-B (KMDW)
02:45PM 41.7419 -86.7206 316° Northwest 389 448 40,000  Level FlightAware ADS-B (KMDW)
02:46PM 41.7822 -86.7735 316° Northwest 389 448 40,000  Level FlightAware ADS-B (KMDW)
02:46PM 41.8479 -86.8601 316° Northwest 389 448 40,000  Level FlightAware ADS-B (KMDW)
02:47PM 41.9114 -86.9435 316° Northwest 390 449 40,000  Level FlightAware ADS-B (KMDW)
02:48PM 41.9516 -86.9966 316° Northwest 389 448 40,000  Level FlightAware ADS-B (KMDW)
02:48PM 41.9896 -87.0471 315° West 389 448 40,000  Level FlightAware ADS-B (KMDW)
02:49PM 42.0422 -87.1172 315° West 390 449 40,000  Level FlightAware ADS-B (KMDW)
02:49PM 42.0802 -87.1678 315° West 390 449 40,000  Level FlightAware ADS-B (KMDW)
02:50PM 42.1183 -87.2185 315° West 389 448 40,000  Level FlightAware ADS-B (KMDW)
02:51PM 42.1691 -87.2866 315° West 388 447 40,000  Level FlightAware ADS-B (KMDW)
02:51PM 42.2256 -87.3623 315° West 388 447 40,000  Level FlightAware ADS-B (KMDW)
02:52PM 42.2671 -87.4178 315° West 389 448 40,000  Level FlightAware ADS-B (KMDW)
02:52PM 42.3127 -87.4790 315° West 389 448 40,000  Level FlightAware ADS-B (KMDW)
02:53PM 42.3563 -87.5381 315° West 389 448 40,000  Level FlightAware ADS-B (KMDW)
02:54PM 42.3960 -87.5918 315° West 389 448 40,000  Level FlightAware ADS-B (KMDW)
02:54PM 42.4354 -87.6451 315° West 390 449 40,000  Level FlightAware ADS-B (KMDW)
02:55PM 42.4863 -87.7140 315° West 391 450 40,000  Level FlightAware ADS-B (KMDW)
02:55PM 42.5372 -87.7831 315° West 392 451 40,000  Level FlightAware ADS-B (KMDW)
02:56PM 42.5762 -87.8366 315° West 393 452 40,000  Level FlightAware ADS-B (KMDW)
02:57PM 42.6270 -87.9057 315° West 395 455 40,000  Level FlightAware ADS-B (KMDW)
02:57PM 42.6648 -87.9574 315° West 395 455 40,000  Level FlightAware ADS-B (KMDW)
02:58PM 42.7270 -88.0426 315° West 396 456 40,000  Level FlightAware ADS-B (KMDW)
02:58PM 42.7614 -88.0900 315° West 396 456 40,000  Level FlightAware ADS-B (KMDW)
02:59PM 42.8058 -88.1511 315° West 395 455 40,000  Level FlightAware ADS-B (KMDW)
02:59PM 42.8413 -88.2003 315° West 394 453 40,000  Level FlightAware ADS-B (KMDW)
03:00PM 42.8971 -88.2776 315° West 393 452 40,000  Level FlightAware ADS-B (KMDW)
03:01PM 42.9399 -88.3374 314° West 393 452 40,000  Level FlightAware ADS-B (KMSN)
03:01PM 42.9800 -88.3932 314° West 393 452 40,000  Level FlightAware ADS-B (KMSN)
03:02PM 43.0232 -88.4531 315° West 393 452 40,000  Level FlightAware ADS-B (KMDW)
03:02PM 43.0676 -88.5151 315° West 393 452 40,000  Level FlightAware ADS-B (KMSN)
03:03PM 43.1084 -88.5722 314° West 393 452 40,000  Level FlightAware ADS-B (KMSN)
03:03PM 43.1158 -88.5824 314° West 393 452 40,000  Level FlightAware ADS-B (KMSN)
03:04PM 43.1959 -88.6948 314° West 392 451 40,000  Level FlightAware ADS-B (KMSN)
03:05PM 43.2348 -88.7496 314° West 393 452 40,000  Level FlightAware ADS-B (KMSN)
03:05PM 43.2477 -88.7678 314° West 393 452 40,000  Level FlightAware ADS-B (KMSN)
03:06PM 43.3235 -88.8744 314° West 393 452 40,000  Level FlightAware ADS-B (KMSN)
03:06PM 43.3562 -88.9211 314° West 394 453 40,000  Level FlightAware ADS-B (KMDW)
03:07PM 43.3975 -88.9795 314° West 394 453 40,000  Level FlightAware ADS-B (KMDW)
03:07PM 43.4372 -89.0364 314° West 393 452 40,000  Level FlightAware ADS-B (KMSN)
03:08PM 43.4870 -89.1074 314° West 392 451 40,000  Level FlightAware ADS-B (KMSN)
03:08PM 43.5207 -89.1555 314° West 393 452 40,000  Level FlightAware ADS-B (KMDW)
03:09PM 43.5623 -89.2150 314° West 392 451 40,000  Level FlightAware ADS-B (KMDW)
03:09PM 43.5943 -89.2606 314° West 391 450 40,000  Level FlightAware ADS-B (KMDW)
03:10PM 43.6640 -89.3611 314° West 391 450 40,000  Level FlightAware ADS-B (KMDW)
03:11PM 43.7016 -89.4150 314° West 391 450 40,000  Level FlightAware ADS-B (KMDW)
03:11PM 43.7388 -89.4687 314° West 391 450 40,000  Level FlightAware ADS-B (KMDW)
03:12PM 43.7575 -89.4958 314° West 392 451 40,000 -60 Level FlightAware ADS-B (KMDW)
03:14PM 43.9116 -89.7198 314° West 390 449 39,900 -840 Descending FlightAware ADS-B (KMDW)
03:15PM 43.9858 -89.8328 314° West 389 448 37,700 -1,440 Descending Minneapolis Center
03:16PM 44.0411 -89.9594 301° West 385 443 36,800 -900 Descending Minneapolis Center
03:17PM 44.0975 -90.0842 302° West 385 443 35,900 -960 Descending Minneapolis Center
03:18PM 44.1517 -90.2042 302° West 372 428 34,900 -960 Descending Minneapolis Center
03:19PM 44.2136 -90.3444 302° West 359 413 34,000 -480 Descending Minneapolis Center
03:20PM 44.2628 -90.4542 302° West 342 394 34,000  Level Minneapolis Center
03:21PM 44.3050 -90.5794 295° West 341 392 34,000  Level Minneapolis Center
03:22PM 44.3444 -90.6928 296° West 341 392 34,000  Level Minneapolis Center
03:23PM 44.3881 -90.8236 295° West 341 392 34,000  Level Minneapolis Center
03:24PM 44.4294 -90.9450 296° West 342 394 34,000  Level Minneapolis Center
03:25PM 44.4703 -91.0672 295° West 343 395 34,000 -660 Level Minneapolis Center
03:26PM 44.5108 -91.1883 295° West 344 396 32,700 -1,860 Descending Minneapolis Center
03:27PM 44.5497 -91.3042 295° West 336 387 30,300 -2,220 Descending Minneapolis Center
03:28PM 44.5850 -91.4097 295° West 312 359 28,200 -2,100 Descending Minneapolis Center
03:29PM 44.6183 -91.5086 295° West 290 334 26,100 -1,920 Descending Minneapolis Center
03:30PM 44.6486 -91.6031 294° West 274 315 24,300 -1,980 Descending Minneapolis Center
03:31PM 44.6831 -91.7069 295° West 253 291 22,100 -1,980 Descending Minneapolis Center
03:32PM 44.7139 -91.7972 296° West 251 289 20,300 -1,860 Descending Minneapolis Center
03:33PM 44.7439 -91.8892 295° West 255 293 18,400 -1,740 Descending Minneapolis Center
03:34PM 44.7728 -91.9803 294° West 256 295 16,800 -1,800 Descending Minneapolis Center
03:35PM 44.8031 -92.0728 295° West 257 296 14,800 -1,920 Descending Minneapolis Center
03:36PM 44.8325 -92.1653 294° West 258 297 12,900 -1,920 Descending Minneapolis Center
03:37PM 44.8628 -92.2575 295° West 259 298 11,000 -1,440 Descending Minneapolis Center
03:38PM 44.8706 -92.3514 277° West 258 297 10,000 -1,020 Descending Minneapolis Center
03:39PM 44.8278 -92.4567 240° Southwest 259 298 9,000 -1,020 Descending Minneapolis Center
03:40PM 44.7989 -92.5450 245° Southwest 253 291 8,000 -960 Descending Minneapolis Center
03:41PM 44.7697 -92.6322 245° Southwest 248 285 7,100 -660 Descending Minneapolis Center
03:42PM 44.7633 -92.7239 264° West 242 278 6,700 -600 Descending Minneapolis Center
03:43PM 44.7622 -92.8125 269° West 232 267 5,900 -780 Descending Minneapolis Center
03:44PM 44.7717 -92.8906 280° West 210 242 5,200 -660 Descending Minneapolis Center
03:45PM 44.7889 -92.9583 290° West 191 220 4,600 -780 Descending Minneapolis Center
03:46PM 44.8047 -93.0242 289° West 184 212 3,700 -900 Descending Minneapolis Center
03:47PM 44.8289 -93.0994 294° West 179 206 2,800 -960 Descending Minneapolis Center
03:49PM 44.8506 -93.1481 302° West 150 173 1,800 -840 Descending Minneapolis Center
03:50PM 44.8675 -93.1867 302° West 118 136 1,200 -600 Descending Minneapolis Center
03:52PM 44.8667 -93.2167 270° West  Level FlightAware Approximate